Regional Weather Roundup
Issued by NWS Glasgow, MT

Home | Current Version | Previous Version | Text Only | Print | Product List | Glossary On
Versions: 1 2 3 4 5 6 7 8 9 10 11 12 13 14 15 16 17 18 19 20 21 22 23 24 25 26 27 28 29 30 31 32 33 34 35 36 37 38 39 40 41 42 43 44 45 46 47 48 49 50
000
ASUS45 KGGW 220715
RWRGGW
HOURLY REGIONAL WEATHER ROUNDUP FOR NORTHEAST MONTANA
NATIONAL WEATHER SERVICE GLASGOW MONTANA
1200 AM MST THU FEB 22 2018

NOTE: "FAIR" INDICATES FEW OR NO CLOUDS BELOW 12,000 FEET WITH NO
SIGNIFICANT WEATHER AND/OR OBSTRUCTIONS TO VISISBILITY.

NORTHEAST MONTANA


CITY           SKY/WX    TMP DP  RH WIND       PRES   REMARKS
GLASGOW        FAIR      -9 -15  75 E12       30.15F WCI -28
PLENTYWOOD       N/A     -2  -5  87 E5          N/A
WOLF POINT     FAIR     -20 -27  70 NW3       30.22S
JORDAN           N/A    -23 -29  73 W5        30.14S
WINNETT          N/A    -15 -18  86 W1          N/A
SIDNEY         FAIR     -12 -18  74 CALM      30.24S
GLENDIVE       FAIR      -2  -7  79 SW5       30.20S
MALTA            N/A    -19 -23  81 NE2         N/A
SCOBEY           N/A    -10 -19  64 CALM      30.12F

FORT PECK REPORTS


CITY           SKY/WX    TMP DP  RH WIND       PRES   REMARKS
FORT PECK        N/A     -3  -7  82 SE8         N/A
THE PINES        N/A     -3  -8  79 SW5         N/A

SOUTHEAST MONTANA


CITY           SKY/WX    TMP DP  RH WIND       PRES   REMARKS
BILLINGS       FAIR       8  -2  63 SW13      30.06S WCI  -8
MILES CITY     FAIR     -18 -21  87 CALM      30.16S
BAKER          FAIR      -9 -14  78 E13       30.17S WCI -29
LIVINGSTON     FAIR       9   0  67 NW13      29.98S WCI  -7

CENTRAL MONTANA


CITY           SKY/WX    TMP DP  RH WIND       PRES   REMARKS
HAVRE          FAIR     -20 -24  82 CALM      30.12R
LEWISTOWN      FAIR       1  -5  75 SE8       30.01R
GREAT FALLS    FAIR       4  -5  66 S8        30.01R
CUT BANK       FAIR       9   0  67 W14       29.99R WCI  -7
HELENA         FAIR       0  -4  83 W3        30.05R
BUTTE          FAIR      -7 -13  75 SE3       29.94S
BOZEMAN        FAIR       1  -4  79 E7        30.01S

WESTERN MONTANA


CITY           SKY/WX    TMP DP  RH WIND       PRES   REMARKS
MISSOULA       CLOUDY    12   5  73 N3        30.08R
KALISPELL      NOT AVBL

NORTH DAKOTA


CITY           SKY/WX    TMP DP  RH WIND       PRES   REMARKS
WILLISTON      FAIR      -1  -8  72 SW5       30.24S
DICKINSON      FAIR      -2 -10  69 S8        30.19S
MINOT          FAIR      -2  -8  76 SE7       30.31S
BISMARCK       FAIR      -1  -6  79 E6        30.36F

SOUTHERN SASKATCHEWAN


CITY           SKY/WX    TMP DP  RH WIND       PRES   REMARKS
REGINA         CLEAR    -11 -15  84 SE10      30.19S WCI -30
ESTEVAN        PTCLDY   -13 -18  77 CALM      30.23S
SWIFT CURRENT  CLEAR     -2 -11  65 S18       30.03S WCI -24




USA.gov is the U.S. government's official web portal to all federal, state and local government web resources and services.